Hourly Data Report for September 28, 2017

All times are specified in Local Standard Time (LST). Add 1 hour to adjust for Daylight Saving Time where and when it is observed.

SUSSEX FOUR CORNERS
NEW BRUNSWICK

45°44'30.048" N
65°31'44.039" W
47.00 m
8105210
71656
ASF

Download Data

Hourly Data (September 2017)
Hourly Data Report for September 28, 2017
Temp Definition
°C
Dew Point Temp Definition
°C
Rel Hum Definition
%
Wind Dir Definition
10's deg

Wind Spd Definition
km/h
Visibility Definition
km
Stn Press Definition
kPa
Hmdx Definition


Wind Chill Definition


Weather Definition


TIME
00:00 18.8 18.2 96 24 21   99.96     LegendNANA
01:00 18.4 18.1 98 20 14   99.87     LegendNANA
02:00 18.5 18.3 98 19 14   99.75     LegendNANA
03:00 18.9 18.4 97 21 10   99.68     LegendNANA
04:00 18.7 18.3 98 23 13   99.64     LegendNANA
05:00 18.4 18.2 98 22 19   99.57     LegendNANA
06:00 18.4 18.2 99 23 13   99.58     LegendNANA
07:00 18.5 18.1 97 5 3   99.57     LegendNANA
08:00 18.8 18.3 97 25 2   99.55     LegendNANA
09:00 19.5 17.8 90 23 10   99.59     LegendNANA
10:00 20.2 17.1 82 28 11   99.64 26   LegendNANA
11:00 19.7 14.5 72 32 6   99.65     LegendNANA
12:00 19.4 13.8 70 30 10   99.65     LegendNANA
13:00 18.7 10.8 60 28 10   99.63     LegendNANA
14:00 19.1 11.3 60 30 10   99.62     LegendNANA
15:00 19.1 11.7 62 30 10   99.63     LegendNANA
16:00 18.3 9.8 58 32 12   99.68     LegendNANA
17:00 17.4 8.3 55 32 14   99.72     LegendNANA
18:00 15.1 7.4 60 33 17   99.79     LegendNANA
19:00 13.4 6.9 64 32 8   99.86     LegendNANA
20:00 11.8 6.3 69 32 5   99.94     LegendNANA
21:00 11.0 5.2 68 31 9   99.94     LegendNANA
22:00 10.6 4.7 67 29 15   99.98     LegendNANA
23:00 9.8 4.8 71 29 14   100.03     LegendNANA

Notes on Data Quality.

Legend

  • E = Estimated
  • M = Missing
  • NA = Not Available
  • ‡ = Partner data that is not subject to review by the National Climate Archives
Date modified: